Flag for United Kingdom Weather past 2 weeks in Caversham, England, United Kingdom

Now
59 °F

Partly sunny.


Feels Like: 59 °F
Forecast: 56 / 70 °F
Wind: 1 mph from South

Location: Benson

Current Time: Aug 27, 2014 at 10:03:41 AM

Latest Report: Aug 27, 2014 at 9:00 AM


Visibility: 16 mi

Pressure: 29.98 "Hg

Humidity: 77%

Dew point: 52 °F

Location of CavershamLocation

Historic Weather in Caversham — Graph

°F

Caversham temperature yesterday

Maximum temperature yesterday: 62 °F (at 4:00 PM)
Minimum temperature yesterday: 51 °F (at 2:00 AM)
Average temperature yesterday: 58 °F

Past Weeks' High & Low Weather Summary

 TemperatureHumidityPressure
High69 °F (Aug 17, 3:00 PM)100% (Aug 24, 4:00 AM)30.18 "Hg (Aug 24, 4:00 AM)
Low36 °F (Aug 24, 6:00 AM)38% (Aug 17, 3:00 PM)29.54 "Hg (Aug 25, 8:00 PM)
Average56 °F75%29.89 "Hg
* Reported Aug 12 8:00 AM — Aug 27 8:00 AM, Caversham, Weather by CustomWeather, © 2014

Note: Actual official high and low records may vary slightly from our data, if they occured in-between our weather recording intervals... More about our weather records

Advertising

Caversham weather history for previous 24 hours

 ConditionsComfort  
Time TempWeatherWind HumidityBarometerVisibility
8:00 AM
Aug 27
52 °FScattered clouds.3 mph95%29.98 "Hg9 mi
7:00 AM47 °FPartly sunny.5 mph99%29.98 "Hg9 mi
6:00 AM45 °FFog.6 mph98%29.97 "Hg4 mi
5:00 AM46 °FFog.2 mph100%29.96 "Hg4 mi
4:00 AM47 °FFog.3 mph98%29.96 "Hg7 mi
3:00 AM47 °FClear.2 mph99%29.96 "Hg9 mi
2:00 AM50 °FClear.7 mph95%29.94 "Hg9 mi
1:00 AM50 °FClear.7 mph94%29.94 "Hg12 mi
12:00 AM52 °FPassing clouds.6 mph89%29.93 "Hg12 mi
11:00 PM
Aug 26
52 °FPassing clouds.7 mph91%29.91 "Hg11 mi
10:00 PM55 °FPassing clouds.8 mph88%29.89 "Hg11 mi
9:00 PM59 °FOvercast.9 mph79%29.88 "Hg12 mi
8:00 PM59 °FPartly sunny.12 mph78%29.84 "Hg12 mi
7:00 PM61 °FPartly sunny.12 mph75%29.81 "Hg14 mi
6:00 PM62 °FOvercast.12 mph79%29.78 "Hg12 mi
5:00 PM62 °FOvercast.14 mph81%29.77 "Hg11 mi
4:00 PM62 °FOvercast.15 mph77%29.75 "Hg9 mi
3:00 PM62 °FOvercast.10 mph84%29.73 "Hg9 mi
2:00 PM61 °FOvercast.15 mph86%29.71 "Hg12 mi
1:00 PM60 °FLight rain. Overcast.12 mph93%29.70 "Hg6 mi
12:00 PM60 °FDrizzle. Low clouds.13 mph93%29.67 "Hg4 mi
11:00 AM60 °FDrizzle. Low clouds.10 mph95%29.65 "Hg3 mi
10:00 AM60 °FDrizzle. Low clouds.12 mph93%29.63 "Hg6 mi
Weather by CustomWeather, © 2014

See weather overviewHow to use our weather pages